Flag for Germany Weather past 2 weeks in Bonn, North Rhine-Westphalia, Germany

Now
51 °F

Clear.


Feels Like: 49 °F
Forecast: 53 / 66 °F
Wind: 6 mph from Southwest

Location: Bonn-Hangelar

Current Time: Jul 29, 2015 at 3:35:25 AM

Latest Report: Jul 29, 2015 at 3:00 AM


Visibility: 18 mi

Pressure: 29.82 "Hg

Humidity: 89%

Dew point: 48 °F

Location of BonnLocation

Historic Weather in Bonn — Graph

°F

Bonn temperature yesterday

Maximum temperature yesterday: 62 °F (at 1:00 PM)
Minimum temperature yesterday: 53 °F (at 5:00 AM)
Average temperature yesterday: 58 °F

Past Weeks' High & Low Weather Summary

 TemperatureHumidityPressure
High89 °F (Jul 17, 5:00 PM)100% (Jul 14, 6:00 AM)30.13 "Hg (Jul 14, 6:00 AM)
Low49 °F (Jul 26, 3:00 AM)31% (Jul 17, 5:00 PM)29.50 "Hg (Jul 25, 7:00 AM)
Average65 °F79%29.91 "Hg
* Reported Jul 14 2:00 AM — Jul 29 2:00 AM, Bonn, Weather by CustomWeather, © 2015

Note: Actual official high and low records may vary slightly from our data, if they occured in-between our weather recording intervals... More about our weather records

Advertising

Bonn weather history for previous 24 hours

 ConditionsComfort  
Time TempWeatherWind HumidityBarometerVisibility
2:00 AM
Wed, Jul 29
53 °FClear.7 mph85%29.82 "Hg19 mi
1:00 AM54 °FPassing clouds.6 mph84%29.81 "Hg19 mi
11:00 PM
Tue, Jul 28
54 °FClear.6 mph78%29.81 "Hg19 mi
10:00 PM58 °FPassing clouds.7 mph65%29.80 "Hg25 mi
9:00 PM60 °FOvercast.8 mph64%29.78 "Hg16 mi
8:00 PM60 °FOvercast.8 mph64%29.78 "Hg25 mi
7:00 PM61 °FOvercast.8 mph61%29.76 "Hg25 mi
6:00 PM61 °FOvercast.9 mph63%29.76 "Hg22 mi
5:00 PM62 °FOvercast.8 mph63%29.75 "Hg22 mi
4:00 PM62 °FLight rain. Overcast.9 mph61%29.76 "Hg28 mi
3:00 PM58 °FOvercast.5 mph82%29.76 "Hg22 mi
2:00 PM59 °FOvercast.10 mph74%29.75 "Hg19 mi
1:00 PM62 °FOvercast.9 mph65%29.74 "Hg16 mi
12:00 PM60 °FOvercast.9 mph71%29.73 "Hg13 mi
11:00 AM59 °FOvercast.8 mph74%29.73 "Hg17 mi
10:00 AM57 °FOvercast.9 mph81%29.74 "Hg18 mi
9:00 AM56 °FOvercast.9 mph83%29.73 "Hg25 mi
8:00 AM55 °FOvercast.9 mph84%29.71 "Hg22 mi
7:00 AM55 °FOvercast.8 mph86%29.71 "Hg22 mi
6:00 AM55 °FOvercast.8 mph82%29.70 "Hg22 mi
5:00 AM53 °FPassing clouds.8 mph85%29.70 "Hg19 mi
4:00 AM54 °FPassing clouds.8 mph80%29.69 "Hg22 mi
3:00 AM55 °FClear.9 mph80%29.70 "Hg22 mi
Weather by CustomWeather, © 2015

See weather overviewHow to use our weather pages